Bozeman, MT

10:32 AM MST on January 20, 2018 (GMT -0700)
Gallatin

Weather History for KBZN - November, 2013

Change the Weather History Date:

Sunday, November 3, 2013

  Actual Average Record
Temperature  
Mean Temperature 33 °F 39 °F  
Max Temperature 39 °F 53 °F 66 °F (1983)
Min Temperature 26 °F 25 °F -19 °F (1991)
Degree Days  
Heating Degree Days 32 26  
Month to date heating degree days 80 77  
Since 1 July heating degree days 1078 974  
Cooling Degree Days 0 0  
Month to date cooling degree days 0 0  
Year to date cooling degree days 284 368  
Moisture  
Dew Point 22 °F    
Average Humidity 66    
Maximum Humidity 92    
Minimum Humidity 40    
Precipitation  
Precipitation 0.02 in 0.03 in 0.55 in (2017)
Month to date precipitation 0.13 0.08  
Year to date precipitation 11.26 12.79  
Snow  
Snow 0.00 in 0.10 in 2.00 in (1956)
Month to date snowfall 0.0 0.3  
Since 1 July snowfall T 2.5  
Since 1 September snowfall T 2.5  
Snow Depth 0.00 in    
Sea Level Pressure  
Sea Level Pressure 29.82 in    
Wind  
Wind Speed 8 mph (WSW)    
Max Wind Speed 20 mph    
Max Gust Speed 24 mph    
Visibility 10 miles    
Events      
T = Trace of Precipitation, MM = Missing Value Source: NWS Daily Summary

Daily Weather History Graph

Daily Weather History Graph

Search for Another Location

Airport or City:

Trip Planner

Search our weather history database for the weather conditions in past years. The results will help you decide how hot, cold, wet, or windy it might be!

Date:

Astronomy

Nov. 03, 2013 Rise Set
Actual Time 7:07 AM MST 5:07 PM MST
Civil Twilight 6:36 AM MST 5:38 PM MST
Nautical Twilight 6:01 AM MST 6:14 PM MST
Astronomical Twilight 5:26 AM MST 6:48 PM MST
Moon 7:16 AM MST (11/3) 5:23 PM MST (11/3)
Length of Visible Light 11h 02m
Length of Day
9h 59m
New Moon, 0% of the Moon is Illuminated
Nov 3
New Moon
Nov 9
First Quarter
Nov 17
Full
Nov 25
Last Quarter
Dec 2
New

Hourly Weather History & Observations

Time (MST) Temp. Windchill Dew Point Humidity Pressure Visibility Wind Dir Wind Speed Gust Speed Precip Events Conditions
12:56 AM 36.0 °F 32.1 °F 34.0 °F 93% 29.70 in 10.0 mi ESE 4.6 mph - 0.01 in   Overcast
1:12 AM 35.6 °F 30.7 °F 33.8 °F 93% 29.69 in 10.0 mi East 5.8 mph - N/A   Overcast
1:56 AM 37.0 °F 33.3 °F 33.1 °F 86% 29.70 in 10.0 mi SSW 4.6 mph - 0.02 in   Overcast
1:17 AM 35.6 °F 30.7 °F 33.8 °F 93% 29.69 in 10.0 mi South 5.8 mph - 0.00 in   Overcast
1:56 AM 35.1 °F 30.1 °F 32.0 °F 89% 29.71 in 10.0 mi SSE 5.8 mph - 0.00 in   Overcast
2:56 AM 33.1 °F 27.7 °F 30.9 °F 92% 29.71 in 10.0 mi SSE 5.8 mph - N/A   Overcast
3:56 AM 33.1 °F 30.0 °F 30.9 °F 92% 29.72 in 10.0 mi SE 3.5 mph - N/A   Overcast
4:56 AM 32.0 °F 25.6 °F 25.0 °F 75% 29.73 in 10.0 mi WNW 6.9 mph - N/A   Mostly Cloudy
5:56 AM 30.9 °F 21.7 °F 21.0 °F 67% 29.76 in 10.0 mi WNW 11.5 mph - N/A   Clear
6:56 AM 30.0 °F 24.1 °F 17.1 °F 59% 29.76 in 10.0 mi West 5.8 mph - N/A   Partly Cloudy
7:56 AM 32.0 °F 22.5 °F 15.1 °F 50% 29.78 in 10.0 mi WNW 12.7 mph - N/A   Clear
8:56 AM 33.1 °F 28.7 °F 19.0 °F 56% 29.84 in 10.0 mi East 4.6 mph - N/A   Partly Cloudy
9:56 AM 37.0 °F 29.3 °F 16.0 °F 42% 29.82 in 10.0 mi West 11.5 mph - N/A   Overcast
10:56 AM 37.0 °F 29.3 °F 15.1 °F 41% 29.83 in 10.0 mi WNW 11.5 mph - N/A   Overcast
11:56 AM 37.0 °F 27.4 °F 15.1 °F 41% 29.83 in 10.0 mi WNW 17.3 mph 24.2 mph N/A   Overcast
12:56 PM 37.9 °F 29.2 °F 17.1 °F 43% 29.83 in 10.0 mi NW 15.0 mph 19.6 mph N/A   Overcast
1:56 PM 37.0 °F 29.8 °F 16.0 °F 42% 29.85 in 10.0 mi NW 10.4 mph 17.3 mph N/A   Overcast
2:56 PM 36.0 °F 26.3 °F 19.0 °F 50% 29.88 in 10.0 mi NW 16.1 mph 19.6 mph 0.00 in   Overcast
3:56 PM 37.0 °F 30.4 °F 15.1 °F 41% 29.90 in 10.0 mi West 9.2 mph - N/A   Overcast
4:56 PM 36.0 °F 29.0 °F 17.1 °F 46% 29.91 in 10.0 mi West 9.2 mph - N/A   Overcast
5:56 PM 35.1 °F 28.6 °F 19.0 °F 52% 29.93 in 10.0 mi SW 8.1 mph - N/A   Overcast
6:56 PM 34.0 °F 31.0 °F 19.0 °F 54% 29.94 in 10.0 mi WSW 3.5 mph - N/A   Overcast
7:56 PM 30.0 °F - 19.9 °F 66% 29.97 in 10.0 mi Calm Calm - N/A   Mostly Cloudy
8:56 PM 32.0 °F - 18.0 °F 56% 29.96 in 10.0 mi Calm Calm - N/A   Mostly Cloudy
9:56 PM 30.9 °F - 18.0 °F 59% 29.97 in 10.0 mi Calm Calm - N/A   Overcast
10:56 PM 27.0 °F 19.5 °F 19.0 °F 72% 29.99 in 10.0 mi South 6.9 mph - N/A   Scattered Clouds